When you browse on this site, cookies collect data to enhance your experience and personalize the content and advertising you see.
Visit our Privacy Policy to learn more. By continuing to use the site, you agree to this use of cookies and data.
  • In Portugal
  • List of Countries
  • For 7 days
  • Water Temperature
  • Satellite Maps
  • Weather Map
  • Weather Widgets
  • user-avatar
    Login

    Hourly Weather Barce

    Today, 26 June, Wednesday

    Time Temperature Precipitation Wind Pressure Humidity
    00:00 +25°C° 0 mm 3 mps 759 mmHg 82%
    01:00 +25°C° 0 mm 3 mps 759 mmHg 82%
    02:00 +24°C° 0 mm 3 mps 759 mmHg 83%
    03:00 +24°C° 0 mm 3 mps 759 mmHg 84%
    04:00 +24°C° 0 mm 3 mps 758 mmHg 85%
    05:00 +25°C° 0 mm 3 mps 758 mmHg 80%
    06:00 +27°C° 0 mm 3 mps 758 mmHg 75%
    07:00 +28°C° 0 mm 4 mps 758 mmHg 71%
    08:00 +29°C° 0 mm 4 mps 758 mmHg 66%
    09:00 +32°C° 0 mm 4 mps 758 mmHg 62%
    10:00 +33°C° 0 mm 4 mps 758 mmHg 57%
    11:00 +34°C° 0 mm 4 mps 757 mmHg 56%
    12:00 +34°C° 0 mm 4 mps 757 mmHg 54%
    13:00 +35°C° 0 mm 5 mps 757 mmHg 52%
    14:00 +35°C° 0 mm 4 mps 756 mmHg 52%
    15:00 +35°C° 0 mm 4 mps 756 mmHg 52%
    16:00 +35°C° 0 mm 4 mps 755 mmHg 52%
    17:00 +34°C° 0 mm 4 mps 755 mmHg 56%
    18:00 +33°C° 0 mm 4 mps 755 mmHg 61%
    19:00 +32°C° 0 mm 4 mps 755 mmHg 66%
    20:00 +30°C° 0.2 mm 4 mps 755 mmHg 69%
    21:00 +28°C° 0.2 mm 4 mps 755 mmHg 72%
    22:00 +27°C° 0.2 mm 4 mps 755 mmHg 75%
    23:00 +26°C° 0.5 mm 4 mps 755 mmHg 80%

    Tomorrow, 27 June, Thursday

    Time Temperature Precipitation Wind Pressure Humidity
    00:00 +23°C° 0.5 mm 4 mps 755 mmHg 86%
    01:00 +22°C° 0.5 mm 4 mps 755 mmHg 92%
    02:00 +21°C° 0 mm 4 mps 755 mmHg 92%
    03:00 +20°C° 0 mm 4 mps 755 mmHg 93%
    04:00 +19°C° 0 mm 4 mps 755 mmHg 93%
    05:00 +19°C° 0 mm 5 mps 755 mmHg 89%
    06:00 +17°C° 0 mm 6 mps 755 mmHg 85%
    07:00 +17°C° 0 mm 7 mps 756 mmHg 81%
    08:00 +18°C° 0 mm 7 mps 756 mmHg 74%
    09:00 +18°C° 0 mm 7 mps 756 mmHg 67%
    10:00 +20°C° 0 mm 7 mps 756 mmHg 61%
    11:00 +21°C° 0 mm 7 mps 756 mmHg 60%
    12:00 +22°C° 0 mm 7 mps 756 mmHg 59%
    13:00 +22°C° 0 mm 7 mps 756 mmHg 58%
    14:00 +22°C° 0 mm 7 mps 756 mmHg 59%
    15:00 +22°C° 0 mm 7 mps 756 mmHg 61%
    16:00 +22°C° 0 mm 7 mps 756 mmHg 62%
    17:00 +21°C° 0 mm 7 mps 756 mmHg 66%
    18:00 +21°C° 0 mm 6 mps 756 mmHg 70%
    19:00 +20°C° 0 mm 5 mps 756 mmHg 74%
    20:00 +19°C° 0 mm 5 mps 756 mmHg 79%
    21:00 +18°C° 0 mm 4 mps 757 mmHg 83%
    22:00 +17°C° 0 mm 4 mps 757 mmHg 88%
    23:00 +16°C° 0 mm 3 mps 757 mmHg 91%

    Day after tomorrow, 28 June, Friday

    Time Temperature Precipitation Wind Pressure Humidity
    00:00 +15°C° 0 mm 2 mps 758 mmHg 93%
    01:00 +14°C° 0 mm 2 mps 758 mmHg 96%
    02:00 +14°C° 0 mm 2 mps 758 mmHg 96%
    03:00 +14°C° 0 mm 2 mps 758 mmHg 96%
    04:00 +14°C° 0 mm 1 mps 758 mmHg 96%
    05:00 +15°C° 0 mm 2 mps 758 mmHg 90%
    06:00 +17°C° 0 mm 2 mps 758 mmHg 83%
    07:00 +18°C° 0 mm 3 mps 758 mmHg 76%
    08:00 +20°C° 0.1 mm 3 mps 758 mmHg 69%
    09:00 +21°C° 0.1 mm 3 mps 757 mmHg 63%
    10:00 +22°C° 0.1 mm 3 mps 757 mmHg 56%
    11:00 +23°C° 0.1 mm 4 mps 757 mmHg 54%
    12:00 +23°C° 0.1 mm 5 mps 757 mmHg 52%
    13:00 +25°C° 0.1 mm 5 mps 757 mmHg 50%
    14:00 +25°C° 0 mm 5 mps 757 mmHg 50%
    15:00 +25°C° 0 mm 5 mps 757 mmHg 50%
    16:00 +23°C° 0 mm 5 mps 757 mmHg 50%
    17:00 +22°C° 0 mm 5 mps 757 mmHg 55%
    18:00 +21°C° 0 mm 4 mps 758 mmHg 59%
    19:00 +19°C° 0 mm 4 mps 758 mmHg 64%
    20:00 +18°C° 0 mm 3 mps 758 mmHg 66%
    21:00 +16°C° 0 mm 3 mps 758 mmHg 69%
    22:00 +14°C° 0 mm 2 mps 759 mmHg 71%
    23:00 +14°C° 0 mm 2 mps 759 mmHg 72%

    29 June, Saturday

    Time Temperature Precipitation Wind Pressure Humidity
    00:00 +13°C° 0 mm 1 mps 759 mmHg 73%
    01:00 +13°C° 0 mm 1 mps 759 mmHg 74%
    02:00 +13°C° 0 mm 1 mps 759 mmHg 74%
    03:00 +13°C° 0 mm 1 mps 759 mmHg 75%
    04:00 +13°C° 0 mm 2 mps 759 mmHg 76%
    05:00 +14°C° 0 mm 2 mps 759 mmHg 72%
    06:00 +16°C° 0 mm 2 mps 759 mmHg 69%
    07:00 +18°C° 0 mm 2 mps 759 mmHg 65%
    08:00 +19°C° 0 mm 3 mps 759 mmHg 61%
    09:00 +21°C° 0 mm 3 mps 759 mmHg 56%
    10:00 +22°C° 0 mm 4 mps 759 mmHg 52%
    11:00 +23°C° 0 mm 4 mps 759 mmHg 50%
    12:00 +25°C° 0 mm 4 mps 758 mmHg 48%
    13:00 +26°C° 0 mm 4 mps 758 mmHg 46%
    14:00 +26°C° 0 mm 4 mps 757 mmHg 46%
    15:00 +26°C° 0 mm 4 mps 757 mmHg 46%
    16:00 +26°C° 0 mm 4 mps 757 mmHg 46%
    17:00 +25°C° 0 mm 3 mps 757 mmHg 51%
    18:00 +24°C° 0 mm 2 mps 757 mmHg 56%
    19:00 +23°C° 0 mm 2 mps 757 mmHg 61%
    20:00 +21°C° 0 mm 2 mps 757 mmHg 61%
    21:00 +20°C° 0 mm 2 mps 757 mmHg 60%
    22:00 +19°C° 0 mm 2 mps 757 mmHg 59%
    23:00 +18°C° 0 mm 2 mps 757 mmHg 61%

    30 June, Sunday

    Time Temperature Precipitation Wind Pressure Humidity
    00:00 +17°C° 0 mm 2 mps 757 mmHg 62%
    01:00 +17°C° 0 mm 3 mps 756 mmHg 63%
    02:00 +17°C° 0 mm 3 mps 756 mmHg 66%
    03:00 +16°C° 0 mm 3 mps 756 mmHg 68%
    04:00 +16°C° 0 mm 3 mps 756 mmHg 71%
    05:00 +18°C° 0 mm 3 mps 756 mmHg 68%
    06:00 +20°C° 0 mm 3 mps 756 mmHg 66%
    07:00 +21°C° 0 mm 3 mps 756 mmHg 63%
    08:00 +24°C° 0 mm 3 mps 756 mmHg 58%
    09:00 +26°C° 0 mm 3 mps 756 mmHg 53%
    10:00 +28°C° 0 mm 4 mps 755 mmHg 48%
    11:00 +29°C° 0 mm 4 mps 755 mmHg 46%
    12:00 +30°C° 0 mm 4 mps 755 mmHg 44%
    13:00 +32°C° 0 mm 5 mps 754 mmHg 43%
    14:00 +32°C° 0 mm 5 mps 754 mmHg 43%
    15:00 +32°C° 0 mm 5 mps 753 mmHg 44%
    16:00 +32°C° 0 mm 5 mps 753 mmHg 45%
    17:00 +30°C° 0 mm 5 mps 753 mmHg 51%
    18:00 +28°C° 0 mm 5 mps 752 mmHg 56%
    19:00 +27°C° 0 mm 4 mps 752 mmHg 62%
    20:00 +26°C° 0 mm 5 mps 752 mmHg 63%
    21:00 +25°C° 0 mm 5 mps 752 mmHg 65%
    22:00 +23°C° 0 mm 5 mps 752 mmHg 67%
    23:00 +23°C° 0 mm 5 mps 752 mmHg 69%

    1 July, Monday

    Time Temperature Precipitation Wind Pressure Humidity
    00:00 +22°C° 0 mm 5 mps 752 mmHg 72%
    01:00 +22°C° 0 mm 5 mps 752 mmHg 74%
    02:00 +21°C° 0 mm 4 mps 752 mmHg 79%
    03:00 +20°C° 0 mm 3 mps 752 mmHg 84%
    04:00 +19°C° 0 mm 2 mps 752 mmHg 88%
    05:00 +20°C° 0 mm 2 mps 753 mmHg 83%
    06:00 +21°C° 0 mm 3 mps 753 mmHg 78%
    07:00 +22°C° 0 mm 3 mps 753 mmHg 73%
    08:00 +24°C° 0 mm 3 mps 753 mmHg 67%
    09:00 +25°C° 0 mm 4 mps 753 mmHg 60%
    10:00 +26°C° 0 mm 5 mps 753 mmHg 54%
    11:00 +26°C° 0 mm 5 mps 753 mmHg 54%
    12:00 +27°C° 0 mm 5 mps 752 mmHg 54%
    13:00 +28°C° 0 mm 5 mps 752 mmHg 53%
    14:00 +28°C° 0 mm 4 mps 751 mmHg 54%
    15:00 +28°C° 0 mm 4 mps 751 mmHg 55%
    16:00 +28°C° 0 mm 4 mps 750 mmHg 55%
    17:00 +27°C° 0 mm 3 mps 750 mmHg 59%
    18:00 +26°C° 0 mm 2 mps 750 mmHg 64%
    19:00 +25°C° 0 mm 1 mps 750 mmHg 68%
    20:00 +23°C° 0.2 mm 1 mps 750 mmHg 69%
    21:00 +22°C° 0.2 mm 1 mps 750 mmHg 70%
    22:00 +20°C° 0.2 mm 2 mps 750 mmHg 72%
    23:00 +19°C° 0 mm 2 mps 750 mmHg 73%
    Show more